STARLINK-30244 (57614 NORAD) Tracking and Keplerian Element Data

This shows tracking and keplerian element data for the satellite.

Feedback or suggestion? Click here.




ElementValue
Catalog57614
NameSTARLINK-30244
Epoch Orbit376
Epoch Day239.16667824
Epoch Year2023
RAAN77.7301
Inclination43.0009
Eccentricity0.0001973
Argument of Perigee201.661
Mean Anonmoly57.4357
Mean Motion15.74531644
Decay Rate-0.00831918
L11 57614U 23119N 23239.16667824 -.00831918 00000+0 -61030-2 0 9991
L22 57614 43.0009 77.7301 0001973 201.6610 57.4357 15.74531644 3769



Live tracking and technical data element details for STARLINK-30244 (NORAD 57614). STARLINK-30244 can be tracked NOW for your location showing map with azimuth and elevation plus other details from your city location.







IsCatalogInMostPopularTable: catalog: 57614, numindb: 5
Update: records affected: 1



GetName: 57614 STARLINK-30244

Hit Count: updated at: Tue, 26 Sep 2023 13:18:23 GMT